Tracking 28790 objects as of 19-Apr-2024
HD Live streaming from Space Station
objects crossing your sky now

ARIANE 5 DEB (SYLDA)

Track ARIANE 5 DEB (SYLDA) now!
10-day predictions


NORAD ID: 33461
Int'l Code: 2008-065C
Perigee: 304.1 km
Apogee: 20,789.2 km
Inclination: 4.4 °
Period: 365.0 minutes
Semi major axis: 16917 km
RCS: 13.741 m2 (large)
Launch date: December 20, 2008
Source: France (FR)
Launch site: FRENCH GUIANA (FRGUI)

Note: This is SATELLITE DEBRIS
Your satellite tracking list
Your tracking list is empty




NASA's NSSDC Master Catalog

Two Line Element Set (TLE):
1 33461U 08065C   24109.45628992  .00031663  00000-0  85477-2 0  9999
2 33461   4.4250  68.3279 6054356 128.8436 302.8833  3.94542245174333
Source of the keplerian elements: AFSPC